Погода в Санта-Элене

Гватемала     16°54′59″N   89°53′25″W
темп.,
°C
ветер,
м/с
пор.,
м/с
влажн.,
%
обл.,
%
осадки,
мм/ч
давл.,
гПа
погр.,
м
9 августа, вт
вт900:00+21ююв1199100 2.0 101518
03:00+21ююв1199100 0.7 101427
06:00+21юв0099100 1.5 101520
09:00+25юв0190100 0.4 1016318
12:00+27ююв1377100 2.6 1014773
15:00+28юв247191 1.2 1012312
18:00+25ююв128595 2.6 101336
21:00+22вюв119990 2.9 101547
10 августа, ср
ср1000:00+22юв009976 3.6 101515
03:00+21ююв0110077 0.1 101430
06:00+21вюв11100100 0.1 101434
09:00+28сз017051 0.0 1015645
12:00+25юв139267 0.8 1015120
15:00+25в2591100 1.4 1013216
18:00+25всв288396 1.4 1014637
21:00+23в1591100 0.5 1015246
11 августа, чт
чт1100:00+22в119597 0.7 101616
03:00+21ююв119958 1.4 101318
06:00+22ююв009892 1.4 101426
09:00+23вюв0195100 0.0 101682
12:00+32вюв265258 0.1 10131912
15:00+31вюв255297 0.6 1012908
18:00+26юв2872100 0.6 1013286
21:00+25в287690 0.0 1015360
12 августа, пт
пт1200:00+23ю119085 0.0 101537
03:00+21ююв009958 0.0 101413
06:00+21юв119872 0.0 101425
09:00+28вюв126412 0.0 1015954
12:00+34юв13395 0.0 10132248
15:00+35юз233631 0.0 10101957
18:00+28с1165100 0.1 101143
21:00+24вюв24862 0.9 1014101
13 августа, сб
сб1300:00+22ююв119541 1.1 101421
03:00+21всв119919 0.0 101313
06:00+20всв019835 0.0 101416
09:00+29в01591 0.0 1015769
12:00+35юз12353 0.0 10132161
15:00+35юз233523 0.0 10102120
18:00+29вюв2760100 0.2 1011388
21:00+25вюв15755 0.0 1013187